Location: Budapest
(47.4979°N, 19.0402°E)
Time: 19:50:12
(UTC+02:00)

Tiangong 2 - Pass Details

Date: 11 October 2017
Orbit: 388 x 391 km, 42.8° (Epoch: 21 October)

Event Time Altitude Azimuth Distance (km) Brightness Sun altitude
Exits shadow 06:01:48 10° 231° (SW) 1,434 3.5 -10.1°
Reaches altitude 10° 06:01:51 10° 231° (SW) 1,419 3.5 -10.1°
Maximum altitude 06:04:40 29° 169° (S) 748 2.6 -9.6°
Drops below altitude 10° 06:07:31 10° 107° (ESE) 1,423 5.4 -9.1°
Sets 06:09:45 0° 95° (E) 2,281 7.4 -8.7°
